Weather History for KTDZ - November, 2013

Change the Weather History Date:

Sunday, November 24, 2013

  Actual Average (KTOL) Record (KTOL)
Temperature  
Mean Temperature 20 °F 38 °F  
Max Temperature 27 °F 45 °F 67 °F (2001)
Min Temperature 14 °F 30 °F 3 °F (1950)
Degree Days  
Heating Degree Days 44 27  
Month to date heating degree days 535  
Since 1 July heating degree days 1061  
Cooling Degree Days 0 0  
Month to date cooling degree days 0  
Year to date cooling degree days 793  
Moisture  
Dew Point 9 °F    
Average Humidity 62    
Maximum Humidity 77    
Minimum Humidity 41    
Precipitation  
Precipitation 0.00 in 0.10 in 0.95 in (2004)
Month to date precipitation 2.27  
Year to date precipitation 30.97  
Snow  
Snow 0.00 in 0.10 in - ()
Month to date snowfall 1.2  
Since 1 July snowfall 1.4  
Since 1 September snowfall 1.4  
Snow Depth -    
Sea Level Pressure  
Sea Level Pressure 30.58 in    
Wind  
Wind Speed 10 mph (West)    
Max Wind Speed 18 mph    
Max Gust Speed 23 mph    
Visibility 10 miles    
Events      
T = Trace of Precipitation, MM = Missing Value Source: NWS Daily Summary

Daily Weather History Graph

Daily Weather History Graph

Search for Another Location

Airport or City:

Trip Planner

Search our weather history database for the weather conditions in past years. The results will help you decide how hot, cold, wet, or windy it might be!

Date:

Astronomy

Nov. 24, 2013 Rise Set
Actual Time 7:33 AM EST 5:07 PM EST
Civil Twilight 7:03 AM EST 5:37 PM EST
Nautical Twilight 6:29 AM EST 6:11 PM EST
Astronomical Twilight 5:55 AM EST 6:45 PM EST
Moon 11:34 PM EST (11/24) 12:18 PM EST (11/24)
Length of Visible Light 10h 34m
Length of Day
9h 33m
Waning Gibbous, 61% of the Moon is Illuminated
Nov 24
Waning Gibbous
Nov 25
Last Quarter
Dec 2
New
Dec 9
First Quarter
Dec 17
Full

Hourly Weather History & Observations

Time (EST) Temp. Windchill Dew Point Humidity Pressure Visibility Wind Dir Wind Speed Gust Speed Precip Events Conditions
12:53 AM 18.0 °F 6.1 °F 8.1 °F 65% 30.56 in 10.0 mi NW 10.4 mph - N/A   Clear
1:53 AM 17.1 °F 5.0 °F 8.1 °F 68% 30.57 in 10.0 mi NW 10.4 mph - N/A   Clear
2:53 AM 17.1 °F 2.0 °F 8.1 °F 68% 30.58 in 10.0 mi NW 16.1 mph - N/A   Mostly Cloudy
3:53 AM 16.0 °F 5.3 °F 8.1 °F 71% 30.58 in 10.0 mi NW 8.1 mph - N/A   Clear
4:53 AM 16.0 °F 5.3 °F 8.1 °F 71% 30.59 in 10.0 mi West 8.1 mph - N/A   Clear
5:53 AM 15.1 °F 4.2 °F 8.1 °F 74% 30.60 in 10.0 mi WNW 8.1 mph - N/A   Clear
6:53 AM 14.0 °F 2.0 °F 7.0 °F 74% 30.61 in 10.0 mi West 9.2 mph - N/A   Clear
7:53 AM 14.0 °F 3.9 °F 7.0 °F 74% 30.62 in 10.0 mi WNW 6.9 mph - N/A   Clear
8:53 AM 18.0 °F 7.7 °F 8.1 °F 65% 30.64 in 10.0 mi West 8.1 mph - N/A   Clear
9:53 AM 21.0 °F 9.3 °F 6.1 °F 53% 30.65 in 10.0 mi NW 11.5 mph - N/A   Clear
10:53 AM 23.0 °F 10.6 °F 5.0 °F 46% 30.64 in 10.0 mi NW 13.8 mph - N/A   Clear
11:53 AM 26.1 °F 14.5 °F 5.0 °F 41% 30.63 in 10.0 mi NW 13.8 mph 21.9 mph N/A   Mostly Cloudy
12:53 PM 25.0 °F 12.2 °F 5.0 °F 43% 30.60 in 10.0 mi West 16.1 mph - N/A   Scattered Clouds
1:53 PM 27.0 °F 13.9 °F 6.1 °F 41% 30.59 in 10.0 mi West 18.4 mph - N/A   Mostly Cloudy
2:53 PM 25.0 °F 12.2 °F 8.1 °F 49% 30.58 in 10.0 mi WNW 16.1 mph 23.0 mph N/A   Clear
3:53 PM 26.1 °F 13.1 °F 9.0 °F 49% 30.58 in 10.0 mi West 17.3 mph - N/A   Mostly Cloudy
4:53 PM 24.1 °F 13.7 °F 10.0 °F 55% 30.58 in 10.0 mi NW 10.4 mph - N/A   Overcast
5:53 PM 23.0 °F 13.1 °F 10.0 °F 58% 30.58 in 10.0 mi WNW 9.2 mph - N/A   Partly Cloudy
6:53 PM 21.9 °F - 10.9 °F 63% 30.56 in 10.0 mi Calm Calm - N/A   Clear
7:53 PM 19.0 °F 12.3 °F 10.9 °F 71% 30.55 in 10.0 mi SSW 4.6 mph - N/A   Clear
8:53 PM 19.9 °F 13.4 °F 12.0 °F 71% 30.53 in 10.0 mi SSW 4.6 mph - N/A   Clear
9:53 PM 19.0 °F 10.0 °F 12.9 °F 77% 30.53 in 10.0 mi SSW 6.9 mph - N/A   Clear
10:53 PM 19.0 °F 11.1 °F 12.0 °F 74% 30.51 in 10.0 mi SSW 5.8 mph - N/A   Clear
11:53 PM 19.0 °F 10.0 °F 12.9 °F 77% 30.50 in 10.0 mi SSW 6.9 mph - N/A   Clear